Regional Weather Roundup
Issued by NWS

Home | Current Version | Previous Version | Text Only | Print | Product List | Glossary On
Versions: 1 2 3 4 5 6 7 8 9 10 11 12 13 14 15 16 17 18 19 20 21 22 23 24 25 26 27 28
000
ASUS46 KPQR 251410
RWROR

OREGON REGIONAL WEATHER ROUNDUP
NATIONAL WEATHER SERVICE PORTLAND OR
700 AM PDT SUN JUN 25 2017

NOTE: "FAIR" INDICATES FEW OR NO CLOUDS BELOW 12,000 FEET WITH
NO SIGNIFICANT WEATHER AND/OR OBSTRUCTIONS TO VISIBILITY.

ORZ001>013-251500-
NORTHWEST OREGON


CITY           SKY/WX    TMP DP  RH WIND       PRES   REMARKS
ASTORIA        SUNNY     56  53  90 W6        29.89R
NEWPORT        SUNNY     54  52  94 S3        29.95R
PORTLAND       MOSUNNY   68  56  65 W7        29.88F
VANCOUVER WA   SUNNY     67  60  78 CALM      29.88F
SCAPPOOSE      SUNNY     64  52  64 CALM      29.88S
HILLSBORO      SUNNY     65  53  65 CALM      29.88S
AURORA         SUNNY     75  46  35 N6        29.87S
MCMINNVILLE    SUNNY     70  48  45 N5        29.87S
SALEM          SUNNY     65  51  60 CALM      29.86S
CORVALLIS      SUNNY     59  52  77 CALM      29.89R
EUGENE         MOSUNNY   62  60  93 S3        29.89R
$$

ORZ021-028-251500-
SOUTHWEST OREGON


CITY           SKY/WX    TMP DP  RH WIND       PRES   REMARKS
NORTH BEND     CLOUDY    55  54  94 S3        29.95R
BROOKINGS      LGT RAIN  54  54 100 VRB3      29.97S FOG
ROSEBURG       SUNNY     67  59  75 CALM      29.89R
SEXTON SUMMIT  SUNNY     75  42  30 E7        30.05R
GRANTS PASS    FAIR      64  54  68 CALM      29.95R
MEDFORD        SUNNY     70  56  61 CALM      29.92R
$$

ORZ014>016-041-251500-
COLUMBIA GORGE


CITY           SKY/WX    TMP DP  RH WIND       PRES   REMARKS
TROUTDALE      SUNNY     76  44  32 E18       29.86F
HOOD RIVER     SUNNY     59  48  67 CALM      30.02S
THE DALLES     SUNNY     61  48  62 CALM      30.01S
$$

ORZ029>031-041-044-049-050-061>064-502-503-505>511-251500-
EASTERN OREGON


CITY           SKY/WX    TMP DP  RH WIND       PRES   REMARKS
MADRAS         SUNNY     59  39  47 SE3       30.11S
REDMOND        SUNNY     59  32  36 CALM      30.12S
BEND           SUNNY    N/A N/A N/A CALM      30.14S
PRINEVILLE     SUNNY     59  37  44 CALM      30.13S
KLAMATH FALLS  SUNNY     62  48  60 CALM      30.13R
LAKEVIEW       SUNNY     59  40  49 N6        30.18R
HERMISTON      SUNNY     62  48  60 SE3       30.01R
PENDLETON      SUNNY     65  46  50 SE5       30.03S
JOHN DAY       SUNNY     60  40  47 CALM      30.17R
MEACHAM        SUNNY     50  38  63 CALM      30.15F
LA GRANDE      SUNNY     57  27  30 N3        30.15S
BAKER CITY     SUNNY     53  45  74 CALM      30.18R
BURNS          SUNNY     59  37  44 W5        30.19R
ROME             N/A     63  35  35 S3        30.18R
ONTARIO        SUNNY     62  44  51 CALM      30.12R
$$




USA.gov is the U.S. government's official web portal to all federal, state and local government web resources and services.